Location: Pilipovskiye Korichintsy
(49.1833°N, 27.4667°E)
Time: 00:21:48
(UTC+00:00)

Lacrosse 5 - Pass Details

Date: 30 October 2020
Orbit: 714 x 725 km, 57.0° (Epoch: 30 November)

Event Time Altitude Azimuth Distance (km) Brightness Sun altitude
Rises 17:22:02 0° 302° (WNW) 3,121 6.2 -25.0°
Reaches altitude 10° 17:24:29 10° 307° (NW) 2,199 5.2 -25.4°
Enters shadow 17:29:01 52° 6° (N) 892 2.3 -26.1°
